Погода в Александровке

Россия / Оренбургская область     52°40′44″N   54°25′03″E
темп.,
°C
ветер,
м/с
пор.,
м/с
влажн.,
%
обл.,
%
осадки,
мм/ч
давл.,
гПа
погр.,
м
13 мая, чт
чт1323:00+17вюв345238 0.0 102738
02:00+15в345486 0.0 102745
05:00+14в47565 0.0 102783
08:00+17вюв59504 0.0 1027248
11:00+22юв67351 0.0 1027736
14:00+25ююв56285 0.0 10271701
17:00+26ююв56270 0.0 10261855
20:00+23юв35410 0.0 102578
14 мая, пт
пт1423:00+18вюв33485 0.0 102619
02:00+16юв33530 0.0 102626
05:00+15юв33544 0.0 102714
08:00+19юв36495 0.0 1027181
11:00+24ю45345 0.0 1027780
14:00+27ююз45262 0.0 10261808
17:00+28ююз442628 0.0 10252129
20:00+25юз333927 0.0 102528
15 мая, сб
сб1523:00+20ю22430 0.0 102511
02:00+19ююв22460 0.0 102511
05:00+17юв225017 0.0 102511
08:00+21ююв234440 0.0 1025121
11:00+26ю44315 0.0 1025675
14:00+28ююз44240 0.0 10242139
17:00+29ююз33242 0.0 10232454
20:00+26зюз22365 0.0 102213
16 мая, вс
вс1623:00+22юв11420 0.0 102211
02:00+20юв22460 0.0 102212
05:00+18юв22530 0.0 102211
08:00+22юв23470 0.0 1023134
11:00+27ююв45345 0.0 1022745
14:00+29ююз55258 0.0 10213367
17:00+29ююз442425 0.0 10203192
20:00+26ссз343955 0.0 101962
17 мая, пн
пн1723:00+24в33378 0.1 101931
02:00+21юв33458 0.0 101912
05:00+20ю334517 0.0 101913
08:00+22ююв344729 0.0 1020145
11:00+26ююв443859 0.0 1019401
14:00+30зюз142267 0.0 10183515
17:00+29ююз342572 0.0 10172272
20:00+27сз123885 0.0 101717